Regional Weather Roundup
Issued by NWS

Home | Current Version | Previous Version | Text Only | Print | Product List | Glossary On
Versions: 1 2 3 4 5 6 7 8 9 10 11 12 13 14 15 16 17 18 19 20 21 22 23 24 25 26 27 28 29 30 31 32 33 34 35 36 37 38 39 40 41 42 43 44 45 46 47 48 49 50
000
ASUS46 KPQR 271510
RWROR

OREGON REGIONAL WEATHER ROUNDUP
NATIONAL WEATHER SERVICE PORTLAND OR
800 AM PDT TUE JUN 27 2017

NOTE: "FAIR" INDICATES FEW OR NO CLOUDS BELOW 12,000 FEET WITH
NO SIGNIFICANT WEATHER AND/OR OBSTRUCTIONS TO VISIBILITY.

ORZ001>013-271600-
NORTHWEST OREGON


CITY           SKY/WX    TMP DP  RH WIND       PRES   REMARKS
ASTORIA        CLOUDY    58  49  72 SW3       30.06S
NEWPORT        CLOUDY    55  52  88 N3        30.11R
PORTLAND       CLOUDY    58  48  69 NW3       30.07S
VANCOUVER WA   CLOUDY    58  50  75 N5        30.07S
SCAPPOOSE      CLOUDY    57  49  74 NW3       30.07R
HILLSBORO      CLOUDY    57  49  74 CALM      30.06S
AURORA         CLOUDY    60  50  69 NE6       30.07S
MCMINNVILLE    CLOUDY    59  51  75 E5        30.07S
SALEM          CLOUDY    59  51  75 NW3       30.05S
CORVALLIS      CLOUDY    57  50  77 NW3       30.07S
EUGENE         DRIZZLE   55  55 100 N6        30.06S FOG
$$

ORZ021-028-271600-
SOUTHWEST OREGON


CITY           SKY/WX    TMP DP  RH WIND       PRES   REMARKS
NORTH BEND     CLOUDY    59  55  88 N8        30.07F
BROOKINGS      CLOUDY    58  53  84 S3        30.02S
ROSEBURG       CLOUDY    59  51  75 W3        30.05S
SEXTON SUMMIT  MOSUNNY   51  51 100 CALM      30.05S FOG
GRANTS PASS    CLOUDY    61  52  72 N7        30.06S
MEDFORD        MOSUNNY   62  54  74 NW5       30.01S
$$

ORZ014>016-041-271600-
COLUMBIA GORGE


CITY           SKY/WX    TMP DP  RH WIND       PRES   REMARKS
TROUTDALE      CLOUDY    59  49  69 VRB3      30.06S
HOOD RIVER     MOSUNNY   61  50  67 NW17G23   29.98S
THE DALLES     SUNNY     66  52  60 NW16      29.94S
$$

ORZ029>031-041-044-049-050-061>064-502-503-505>511-271600-
EASTERN OREGON


CITY           SKY/WX    TMP DP  RH WIND       PRES   REMARKS
MADRAS         SUNNY     61  52  72 CALM      30.01S
REDMOND        SUNNY     64  48  56 CALM      30.00S
BEND           SUNNY     64  46  52 S6        30.02F
PRINEVILLE     SUNNY     61  52  72 CALM      30.02S
KLAMATH FALLS  SUNNY     58  55  90 CALM      30.06S
LAKEVIEW       SUNNY     62  40  44 CALM      30.10S
HERMISTON      SUNNY     69  50  50 SW14      29.90R
PENDLETON      SUNNY     66  49  54 W13       29.93S
JOHN DAY       SUNNY     61  52  72 CALM      30.01S
MEACHAM        SUNNY     59  42  53 VRB3      30.00R
LA GRANDE      SUNNY     64  46  52 E3        29.95S
BAKER CITY     SUNNY     62  50  64 S3        29.97S
BURNS          SUNNY     64  48  56 CALM      30.03F
ROME             N/A     73  45  36 NW3       30.02R
ONTARIO        SUNNY     73  51  46 W8        29.92S
$$



USA.gov is the U.S. government's official web portal to all federal, state and local government web resources and services.